Regional Weather Roundup
Issued by NWS

Home | Current Version | Previous Version | Text Only | Print | Product List | Glossary Off
Versions: 1 2 3 4 5 6 7 8 9 10 11 12 13 14 15 16 17 18 19 20 21 22 23 24 25 26 27 28 29 30 31 32 33 34 35 36 37 38 39 40 41 42 43 44 45 46 47 48 49 50

000
ASUS43 KMKX 222021
RWRWI

WISCONSIN REGIONAL WEATHER ROUNDUP
NATIONAL WEATHER SERVICE MILWAUKEE/SULLIVAN WI
300 PM CDT TUE APR 22 2014

NOTE: "FAIR" INDICATES FEW OR NO CLOUDS BELOW 12,000 FEET WITH NO
SIGNIFICANT WEATHER AND/OR OBSTRUCTIONS TO VISIBILITY.

WIZ001-002-006>008-014>016-023>028-222100-
NORTHWEST WISCONSIN

CITY           SKY/WX    TMP DP  RH WIND       PRES   REMARKS
SUPERIOR ARPT  SUNNY     53  25  33 N9        30.09S
ASHLAND        SUNNY     48  27  44 N10       30.09S
HAYWARD        SUNNY     51  22  31 NE13G21   30.08S
SIREN          SUNNY     51  21  30 N10       30.09S
RICE LAKE      SUNNY     52  21  30 N15       30.08F
LADYSMITH      SUNNY     51  25  36 N14G21    30.07R
EAU CLAIRE     MOSUNNY   55  21  26 NW15G23   30.06S
MENOMONIE      CLEAR     54  21  27 N13       30.07S
NEW RICHMOND   SUNNY     53  26  34 N14G22    30.09S
OSCEOLA        SUNNY     55  28  36 NW15G22   30.11F
$$

WIZ003>005-009-010-017-018-222100-
NORTH CENTRAL WISCONSIN

CITY           SKY/WX    TMP DP  RH WIND       PRES   REMARKS
WOODRUFF       PTSUNNY   45  26  46 N17G25    30.04S
RHINELANDER    PTSUNNY   42  24  49 NW16G25   30.03S
EAGLE RIVER    CLOUDY    39  24  53 N10G21    30.03R WCI  33
LAND O LAKES   CLOUDY    39  26  60 N12G17    30.03S WCI  32
PHILLIPS       MOSUNNY   44  23  44 N13G20    30.05R
TOMAHAWK       MOSUNNY   45  24  42 NW13G26   30.04R
MEDFORD        MOSUNNY   49  26  41 NW16G22   30.02S
MERRILL        SUNNY     48  25  41 N15G22    30.02S
$$

WIZ029-030-035-036-043>047-222100-
CENTRAL WISCONSIN

CITY           SKY/WX    TMP DP  RH WIND       PRES   REMARKS
WAUSAU         SUNNY     49  23  36 NW16G24   30.00S
MOSINEE        MOSUNNY   48  27  43 MISG      30.03R
MARSHFIELD     MOSUNNY   53  26  35 N16G24    30.02R
STEVENS POINT  MOSUNNY   49  23  36 N18G25    30.01R
WAUPACA        SUNNY     55  23  28 NW14G23   29.99S
WAUTOMA        SUNNY     55  25  31 NW12G22   30.00F
WISC RAPIDS    SUNNY     55  24  30 NW16G26   30.02S
CAMP DOUGLAS   PTSUNNY   57  25  28 N8G25     30.01S
$$

WIZ011>013-019>022-031-037>040-048>050-222100-
NORTHEAST WISCONSIN

CITY           SKY/WX    TMP DP  RH WIND       PRES   REMARKS
ANTIGO         MOSUNNY   43  28  54 N21G28    30.02R
STURGEON BAY   CLOUDY    43  27  52 NW14G21   29.99R
GREEN BAY      PTSUNNY   49  30  48 N15G30    29.99S
MANITOWOC      CLOUDY    48  29  47 N16G24    29.98R
APPLETON       MOSUNNY   50  37  62 N16G24    29.99S
CLINTONVILLE   MOSUNNY   48  23  37 N10G22    30.00R
OSHKOSH        SUNNY     52  26  36 NW13G28   29.98R
$$

WIZ032>034-041-042-053>061-222100-
SOUTHWEST WISCONSIN

CITY           SKY/WX    TMP DP  RH WIND       PRES   REMARKS
LA CROSSE      SUNNY     60  25  26 NW15G26   30.03F
SPARTA         SUNNY     56  22  26 NW20G28   30.04R
VIROQUA        FAIR      54  27  35 NW15G28   30.03R
BOSCOBEL       MOSUNNY   60  24  25 NW15G21   30.03S
PRAIRIE DU CHI MOSUNNY   57  24  27 NW15      30.04S
PLATTEVILLE    FAIR      57  26  30 N17G23    30.02S
$$

WIZ056-057-062-063-064-067-068-222100-
SOUTH CENTRAL WISCONSIN

CITY           SKY/WX    TMP DP  RH WIND       PRES   REMARKS
BARABOO/DELLS  SUNNY     54  24  30 NW12G22   30.00S
LONE ROCK      SUNNY     57  29  34 NW17G23   30.01S
WATERTOWN      SUNNY     55  31  40 NW18G24   29.98S
MADISON        PTSUNNY   57  24  28 NW14G25   29.99S
MIDDLETON      FAIR      58  23  26 N16G25    30.00S
MONROE         SUNNY     57  26  30 NW9G20    29.98F
JANESVILLE     SUNNY     61  21  21 NW16G25   29.97S
$$

WIZ051-052-058>065-066-070>072-222100-
SOUTHEAST WISCONSIN

CITY           SKY/WX    TMP DP  RH WIND       PRES   REMARKS
MILWAUKEE      PTSUNNY   57  30  35 NW13G24   29.96S
WAUKESHA       MOSUNNY   52  28  40 NW20G25   29.97S
MILWAUKEE/TIMM MOSUNNY   54  27  35 NW15G24   29.97R
RACINE         PTSUNNY   51  33  50 E13       29.99R
BURLINGTON     MOSUNNY   55  31  38 NW13      29.96S
KENOSHA        MOSUNNY   57  31  37 NW14G23   29.96R
FOND DU LAC    SUNNY     53  27  36 N20G28    29.98R
SHEBOYGAN      CLOUDY    50  29  44 N15G25    29.97S
WEST BEND      MOSUNNY   52  27  37 NW12G25   29.96S
JUNEAU         SUNNY     53  20  28 NW10G22   29.98F
$$

LSZ147-162-222100-
LAKE SUPERIOR

STATION/POSITION TIME  TEMP    WIND        PRES    WAVE
                       AIR SEA DIR/SP/G            HT/PER
                 (UTC) (F)     (DEG/KT/KT) (MB)    (FT/S)
DEVILS ISLAND    2000   42     230/  7/  8 1019.6S
PORT WING        1900   43     300/  4/  4 1019.3F
SAXON HARBOR     1900             CALM     1019.6
$$

LMZ867-665-643>646-222100-
LAKE MICHIGAN

STATION/POSITION TIME  TEMP    WIND        PRES    WAVE
                       AIR SEA DIR/SP/G            HT/PER
                 (UTC) (F)     (DEG/KT/KT) (MB)    (FT/S)
NORTHPORT PIER   1900   36     330/ 14/ 19 1014.6R
SISTER BAY       1909   38     340/ 12/ 14   N/A
KEWAUNEE LAKESHO 1900   45     320/ 15/ 22 1015.5R
SHEBOYGAN LAKESH 2000   48      10/ 19/ 21 1015.5R
PORT WASHINGTON  1900   52     310/ 10/ 18 1014.9S
MILWAUKEE LAKESH 2000   42      80/ 11/ 13   N/A
KENOSHA   LAKESH 2000   45     100/  5/  8   N/A
$$

TC  - TEMPERATURE IN CELSIUS
VSB - VISIBILITY IN STATUTE MILES
WCI - WIND CHILL INDEX
HX  - HEAT INDEX




USA.gov is the U.S. government's official web portal to all federal, state and local government web resources and services.